DW4589 Weather Reports


time (UTC)temp
C
wind
direction
speed
KPH
gust
KPH
rain 1hr
cm
rain 24hr
cm
rain mn
cm
humidity
%
barometer
mb
20260508220510 18 198 4.8 8.0 0.00 0.00 0.00 46 1009.4
20260508220011 18 215 3.2 12.9 0.00 0.00 0.00 46 1009.4
20260508215503 18 226 6.4 12.9 0.00 0.00 0.00 46 1009.4
20260508215004 18 153 3.2 6.4 0.00 0.00 0.00 45 1009.3
20260508214526 18 235 1.6 4.8 0.00 0.00 0.00 46 1009.3
20260508214009 18 222 0.0 4.8 0.00 0.00 0.00 47 1009.3
20260508213508 18 202 1.6 6.4 0.00 0.00 0.00 47 1009.4
20260508213023 18 259 1.6 8.0 0.00 0.00 0.00 47 1009.4
20260508212508 18 237 4.8 8.0 0.00 0.00 0.00 44 1009.6
20260508212009 18 228 4.8 11.3 0.00 0.00 0.00 45 1009.5
20260508211527 18 241 4.8 16.1 0.00 0.00 0.00 43 1009.6
20260508211014 18 238 9.7 16.1 0.00 0.00 0.00 43 1009.7
20260508210511 18 272 6.4 9.7 0.00 0.00 0.00 44 1009.8
20260508210028 18 270 3.2 11.3 0.00 0.00 0.00 45 1009.9
20260508205510 18 229 4.8 16.1 0.00 0.00 0.00 44 1009.8
20260508205012 18 236 6.4 16.1 0.00 0.00 0.00 44 1010.1
20260508204517 18 311 6.4 19.3 0.00 0.00 0.00 45 1010.2
20260508204003 19 228 6.4 19.3 0.00 0.00 0.00 43 1010.2
20260508203508 19 213 6.4 12.9 0.00 0.00 0.00 44 1010.2
20260508203012 19 229 3.2 16.1 0.00 0.00 0.00 44 1010.2
20260508202504 18 255 9.7 16.1 0.00 0.00 0.00 43 1010.2
20260508202002 18 248 4.8 14.5 0.00 0.00 0.00 44 1010.4
20260508201510 18 360 8.0 17.7 0.00 0.00 0.00 42 1010.4
20260508201005 18 288 8.0 12.9 0.00 0.00 0.00 43 1010.4
20260508200503 18 224 3.2 14.5 0.00 0.00 0.00 43 1010.4
20260508200009 18 288 4.8 17.7 0.00 0.00 0.00 43 1010.5
20260508195504 18 246 4.8 17.7 0.00 0.00 0.00 42 1010.6
20260508195003 19 251 9.7 17.7 0.00 0.00 0.00 41 1010.6
20260508194517 19 250 8.0 22.5 0.00 0.00 0.00 41 1010.6
20260508194004 19 223 12.9 20.9 0.00 0.00 0.00 42 1010.6
20260508193504 19 244 4.8 32.2 0.00 0.00 0.00 42 1010.7
20260508193020 19 213 12.9 32.2 0.00 0.00 0.00 39 1010.7
20260508192510 19 225 14.5 29.0 0.00 0.00 0.00 43 1010.8
20260508192003 19 246 9.7 19.3 0.00 0.00 0.00 42 1010.9
20260508191503 20 225 9.7 17.7 0.00 0.00 0.00 41 1010.9
20260508191003 20 220 8.0 16.1 0.00 0.00 0.00 41 1010.9
20260508190504 19 219 9.7 22.5 0.00 0.00 0.00 41 1011.1
20260508190021 19 209 8.0 22.5 0.00 0.00 0.00 43 1011.3
20260508185504 19 225 8.0 16.1 0.00 0.00 0.00 43 1011.4
20260508185005 19 250 8.0 25.7 0.00 0.00 0.00 44 1011.6
20260508184524 19 265 12.9 25.7 0.00 0.00 0.00 41 1011.5
20260508184007 20 222 11.3 25.7 0.00 0.00 0.00 43 1011.6
20260508183507 20 303 11.3 24.1 0.00 0.00 0.00 42 1011.6
20260508183028 20 279 12.9 25.7 0.00 0.00 0.00 44 1011.7
20260508182505 19 243 9.7 25.7 0.00 0.00 0.00 47 1011.9
20260508182009 19 318 8.0 20.9 0.00 0.00 0.00 46 1012.1
20260508181522 19 193 4.8 20.9 0.00 0.00 0.00 43 1012.0
20260508181008 19 209 6.4 20.9 0.00 0.00 0.00 42 1012.0
20260508180503 19 257 9.7 22.5 0.00 0.00 0.00 46 1012.0
20260508180004 18 286 8.0 25.7 0.00 0.00 0.00 46 1012.1
20260508175504 18 232 16.1 25.7 0.00 0.00 0.00 42 1012.1
20260508175004 18 207 11.3 24.1 0.00 0.00 0.00 45 1012.1
20260508174511 18 225 8.0 17.7 0.00 0.00 0.00 46 1012.3
20260508174006 18 232 9.7 17.7 0.00 0.00 0.00 47 1012.4
20260508173506 18 260 8.0 19.3 0.00 0.00 0.00 45 1012.6
20260508173017 18 280 12.9 19.3 0.00 0.00 0.00 47 1012.7
20260508172508 18 227 12.9 19.3 0.00 0.00 0.00 45 1012.8
20260508172008 18 208 8.0 17.7 0.00 0.00 0.00 47 1012.8
20260508171524 18 244 12.9 19.3 0.00 0.00 0.00 44 1012.9
20260508171016 18 222 11.3 19.3 0.00 0.00 0.00 46 1013.0
20260508170508 19 273 11.3 22.5 0.00 0.00 0.00 46 1013.1
20260508170033 19 274 14.5 22.5 0.00 0.00 0.00 47 1013.2
20260508165503 19 234 11.3 24.1 0.00 0.00 0.00 46 1013.2
20260508165005 19 267 14.5 24.1 0.00 0.00 0.00 48 1013.4
20260508164520 18 253 11.3 22.5 0.00 0.00 0.00 46 1013.4
20260508164007 18 262 14.5 22.5 0.00 0.00 0.00 47 1013.5
20260508163504 18 229 9.7 22.5 0.00 0.00 0.00 49 1013.4
20260508163016 18 174 11.3 19.3 0.00 0.00 0.00 47 1013.5
20260508162508 18 240 8.0 19.3 0.00 0.00 0.00 49 1013.5
20260508162007 18 238 11.3 25.7 0.00 0.00 0.00 50 1013.6
20260508161520 18 247 9.7 25.7 0.00 0.00 0.00 50 1013.6
20260508161009 18 264 9.7 24.1 0.00 0.00 0.00 49 1013.7
20260508160510 18 254 9.7 24.1 0.00 0.00 0.00 50 1013.8
20260508160025 17 302 11.3 19.3 0.00 0.00 0.00 47 1013.9
20260508155509 17 229 11.3 20.9 0.00 0.00 0.00 54 1013.9
20260508155011 17 265 9.7 22.5 0.00 0.00 0.00 52 1013.8
20260508154506 17 230 11.3 22.5 0.00 0.00 0.00 51 1013.9
20260508154004 17 208 9.7 20.9 0.00 0.00 0.00 52 1013.9
20260508153505 17 266 8.0 25.7 0.00 0.00 0.00 52 1014.0
20260508153027 17 248 11.3 25.7 0.00 0.00 0.00 50 1013.9
20260508152507 17 246 9.7 22.5 0.00 0.00 0.00 52 1014.0
20260508152010 17 292 11.3 20.9 0.00 0.00 0.00 51 1014.1
20260508151520 17 252 8.0 22.5 0.00 0.00 0.00 54 1014.0
20260508151008 16 276 8.0 22.5 0.00 0.00 0.00 50 1014.1
20260508150509 16 241 11.3 22.5 0.00 0.00 0.00 51 1014.1
20260508150026 17 247 8.0 19.3 0.00 0.00 0.00 53 1014.2
20260508145507 16 221 6.4 22.5 0.00 0.00 0.00 54 1014.2
20260508145009 16 264 11.3 22.5 0.00 0.00 0.00 51 1014.2
20260508144529 16 303 4.8 19.3 0.00 0.00 0.00 55 1014.2
20260508144006 16 271 4.8 16.1 0.00 0.00 0.00 54 1014.3
20260508143506 16 295 8.0 19.3 0.00 0.00 0.00 50 1014.5
20260508143012 15 248 9.7 20.9 0.00 0.00 0.00 52 1014.5
20260508142504 15 228 11.3 20.9 0.00 0.00 0.00 53 1014.5
20260508142012 15 286 8.0 22.5 0.00 0.00 0.00 53 1014.6
20260508141516 15 242 9.7 22.5 0.00 0.00 0.00 53 1014.7
20260508141008 15 215 6.4 12.9 0.00 0.00 0.00 58 1014.8
20260508140504 14 236 6.4 11.3 0.00 0.00 0.00 55 1014.8
20260508140023 13 277 4.8 9.7 0.00 0.00 0.00 56 1014.7
20260508135507 13 244 1.6 9.7 0.00 0.00 0.00 60 1014.9
20260508135010 13 202 3.2 12.9 0.00 0.00 0.00 58 1014.9
20260508134523 12 243 6.4 12.9 0.00 0.00 0.00 60 1014.9
20260508134008 12 264 1.6 8.0 0.00 0.00 0.00 61 1015.0
20260508133510 12 211 1.6 9.7 0.00 0.00 0.00 61 1015.0
20260508133027 12 207 4.8 12.9 0.00 0.00 0.00 57 1015.0
20260508132510 12 269 3.2 12.9 0.00 0.00 0.00 60 1015.1
20260508132003 12 230 4.8 9.7 0.00 0.00 0.00 60 1015.0
20260508131516 12 192 3.2 8.0 0.00 0.00 0.00 62 1015.0
20260508131006 11 216 4.8 8.0 0.00 0.00 0.00 61 1015.0
20260508130507 11 221 1.6 8.0 0.00 0.00 0.00 63 1014.8
20260508130031 11 218 3.2 11.3 0.00 0.00 0.00 63 1014.8
20260508125508 11 221 6.4 11.3 0.00 0.00 0.00 61 1014.9
20260508125008 11 237 4.8 8.0 0.00 0.00 0.00 65 1014.9
20260508124524 10 169 3.2 6.4 0.00 0.00 0.00 65 1014.9
20260508124010 10 229 3.2 6.4 0.00 0.00 0.00 1014.9
20260508123508 10 240 1.6 6.4 0.00 0.00 0.00 66 1014.8
20260508123028 10 217 3.2 6.4 0.00 0.00 0.00 66 1014.8
20260508122513 10 225 1.6 6.4 0.00 0.00 0.00 65 1014.7
20260508122012 10 229 1.6 6.4 0.00 0.00 0.00 66 1014.7
20260508121530 9 225 0.0 8.0 0.00 0.00 0.00 67 1014.7
20260508121004 8 215 4.8 8.0 0.00 0.00 0.00 68 1014.8
20260508120503 8 229 3.2 8.0 0.00 0.00 0.00 70 1014.7
20260508120017 8 219 0.0 6.4 0.00 0.00 0.00 72 1014.7
20260508115504 8 205 1.6 6.4 0.00 0.00 0.00 72 1014.6
20260508115006 7 173 0.0 3.2 0.00 0.00 0.00 74 1014.6
20260508114523 7 200 1.6 8.0 0.00 0.00 0.00 73 1014.6
20260508114011 7 184 0.0 8.0 0.00 0.00 0.00 74 1014.5
20260508113504 7 165 0.0 3.2 0.00 0.00 0.00 75 1014.5
20260508113005 7 219 0.0 3.2 0.00 0.00 0.00 76 1014.4
20260508112505 7 218 0.0 3.2 0.00 0.00 0.00 77 1014.4
20260508112003 7 219 0.0 3.2 0.00 0.00 0.00 77 1014.3
20260508111507 7 218 0.0 3.2 0.00 0.00 0.00 78 1014.2
20260508111004 7 219 0.0 3.2 0.00 0.00 0.00 77 1014.2
20260508110502 7 218 0.0 3.2 0.00 0.00 0.00 78 1014.1
20260508110004 6 219 0.0 3.2 0.00 0.00 0.00 78 1014.1
20260508105504 6 219 0.0 3.2 0.00 0.00 0.00 77 1014.1
20260508105003 6 192 0.0 3.2 0.00 0.00 0.00 80 1014.1
20260508104504 6 192 0.0 3.2 0.00 0.00 0.00 80 1014.2
20260508104003 6 192 0.0 3.2 0.00 0.00 0.00 80 1014.3
20260508103503 6 192 0.0 3.2 0.00 0.00 0.00 79 1014.3
20260508103010 6 192 0.0 3.2 0.00 0.00 0.00 79 1014.2
20260508102502 6 192 0.0 3.2 0.00 0.00 0.00 80 1014.2
20260508102003 6 164 0.0 3.2 0.00 0.00 0.00 80 1014.2
20260508101504 6 164 0.0 3.2 0.00 0.00 0.00 82 1014.1
20260508101002 6 164 0.0 3.2 0.00 0.00 0.00 82 1014.2
20260508100503 6 164 0.0 3.2 0.00 0.00 0.00 82 1014.2
20260508100004 6 164 0.0 3.2 0.00 0.00 0.00 82 1014.3
20260508095506 6 164 0.0 3.2 0.00 0.00 0.00 81 1014.3
20260508095004 6 164 0.0 3.2 0.00 0.00 0.00 81 1014.3
20260508094509 6 164 0.0 3.2 0.00 0.00 0.00 80 1014.3
20260508094003 6 164 0.0 1.6 0.00 0.00 0.00 80 1014.3
20260508093503 6 164 0.0 3.2 0.00 0.00 0.00 80 1014.3
20260508093008 6 164 0.0 3.2 0.00 0.00 0.00 81 1014.4
20260508092503 6 164 0.0 3.2 0.00 0.00 0.00 81 1014.3
20260508092007 6 164 0.0 3.2 0.00 0.00 0.00 80 1014.2
20260508091514 6 168 0.0 3.2 0.00 0.00 0.00 80 1014.3
20260508091003 6 204 0.0 3.2 0.00 0.00 0.00 79 1014.3
20260508090503 5 219 0.0 3.2 0.00 0.00 0.00 80 1014.3
20260508090010 5 220 0.0 3.2 0.00 0.00 0.00 81 1014.2
20260508085505 5 222 0.0 0.0 0.00 0.00 0.00 81 1014.2
20260508085003 5 170 0.0 0.0 0.00 0.00 0.00 80 1014.1
20260508084509 5 170 0.0 0.0 0.00 0.00 0.00 78 1014.4
20260508084003 5 170 0.0 0.0 0.00 0.00 0.00 77 1014.4
20260508083503 5 170 0.0 0.0 0.00 0.00 0.00 76 1014.3
20260508083012 5 170 0.0 0.0 0.00 0.00 0.00 76 1014.2
20260508082505 5 170 0.0 0.0 0.00 0.00 0.00 76 1014.2
20260508082008 5 170 0.0 0.0 0.00 0.00 0.00 75 1014.1
20260508081511 5 170 0.0 0.0 0.00 0.00 0.00 75 1014.0
20260508081004 5 228 0.0 0.0 0.00 0.00 0.00 75 1014.1
20260508080503 5 228 0.0 6.4 0.00 0.00 0.00 75 1014.1
20260508080012 5 228 0.0 6.4 0.00 0.00 0.00 75 1014.1
20260508075503 5 211 0.0 3.2 0.00 0.00 0.00 76 1014.1
20260508075002 5 142 0.0 3.2 0.00 0.00 0.00 76 1014.1
20260508074514 5 142 0.0 3.2 0.00 0.00 0.00 75 1014.0
20260508074001 5 128 0.0 3.2 0.00 0.00 0.00 75 1014.0
20260508073507 5 174 0.0 3.2 0.00 0.00 0.00 75 1014.0
20260508073012 5 260 0.0 3.2 0.00 0.00 0.00 76 1014.1
20260508072506 5 184 0.0 0.0 0.00 0.00 0.00 76 1014.1
20260508072006 5 184 0.0 3.2 0.00 0.00 0.00 77 1014.1
20260508071516 5 184 0.0 4.8 0.00 0.00 0.00 77 1014.1
20260508071003 5 184 0.0 6.4 0.00 0.00 0.00 78 1014.1
20260508070503 5 184 1.6 6.4 0.00 0.00 0.00 79 1014.1
20260508070012 5 114 0.0 3.2 0.00 0.00 0.00 79 1014.2
20260508065504 5 146 0.0 3.2 0.00 0.00 0.00 80 1014.3
20260508065003 5 161 0.0 3.2 0.00 0.00 0.00 80 1014.4
20260508064512 5 270 0.0 3.2 0.00 0.00 0.00 81 1014.5
20260508064006 5 270 0.0 3.2 0.00 0.00 0.00 81 1014.6
20260508063503 5 270 0.0 3.2 0.00 0.00 0.00 81 1014.7
20260508063014 5 270 0.0 3.2 0.00 0.00 0.00 80 1014.6
20260508062506 5 270 0.0 3.2 0.00 0.00 0.00 79 1014.7
20260508062003 5 270 0.0 3.2 0.00 0.00 0.00 79 1014.8
20260508061514 5 270 0.0 1.6 0.00 0.00 0.00 79 1014.7
20260508061003 5 270 0.0 0.0 0.00 0.00 0.00 79 1014.8
20260508060507 5 269 0.0 0.0 0.00 0.00 0.00 79 1014.7
20260508060012 5 269 0.0 0.0 0.00 0.00 0.00 79 1014.7
20260508055505 5 270 0.0 0.0 0.00 0.00 0.00 78 1014.7
20260508055008 5 270 0.0 0.0 0.00 0.00 0.00 77 1014.9
20260508054511 5 270 0.0 0.0 0.00 0.00 0.00 77 1014.8
20260508054006 5 270 0.0 0.0 0.00 0.00 0.00 76 1014.8
20260508053505 5 270 0.0 0.0 0.00 0.00 0.00 76 1014.9
20260508053013 5 269 0.0 0.0 0.00 0.00 0.00 76 1014.7
20260508052504 5 270 0.0 0.0 0.00 0.00 0.00 77 1014.7
20260508052003 5 270 0.0 0.0 0.00 0.00 0.00 78 1014.7
20260508051514 5 270 0.0 0.0 0.00 0.00 0.00 78 1014.6
20260508051007 6 270 0.0 0.0 0.00 0.00 0.00 78 1014.6
20260508050506 6 270 0.0 0.0 0.00 0.00 0.00 78 1014.7
20260508050018 6 270 0.0 0.0 0.00 0.00 0.00 76 1014.7
20260508045505 6 270 0.0 0.0 0.00 0.00 0.00 75 1014.7
20260508045006 6 270 0.0 0.0 0.00 0.00 0.00 75 1014.6
20260508044514 6 270 0.0 3.2 0.00 0.00 0.00 76 1014.6
20260508044004 6 270 0.0 3.2 0.00 0.00 0.00 77 1014.6
20260508043506 6 270 0.0 3.2 0.00 0.00 0.00 76 1014.6
20260508043016 6 270 0.0 3.2 0.00 0.00 0.00 75 1014.6
20260508042504 6 270 0.0 3.2 0.00 0.00 0.00 77 1014.6
20260508042010 6 270 0.0 3.2 0.00 0.00 0.00 75 1014.6
20260508041515 6 270 0.0 3.2 0.00 0.00 0.00 75 1014.5
20260508041006 6 270 0.0 3.2 0.00 0.00 0.00 75 1014.4
20260508040507 6 270 0.0 1.6 0.00 0.00 0.00 76 1014.4
20260508040026 6 270 0.0 0.0 0.00 0.00 0.00 75 1014.5
20260508035505 6 270 0.0 0.0 0.00 0.00 0.00 76 1014.4
20260508035007 6 270 0.0 0.0 0.00 0.00 0.00 76 1014.4
20260508034520 6 270 0.0 0.0 0.00 0.00 0.00 77 1014.4
20260508034004 6 270 0.0 0.0 0.00 0.00 0.00 76 1014.5
20260508033503 6 270 0.0 0.0 0.00 0.00 0.00 75 1014.4
20260508033019 6 270 0.0 0.0 0.00 0.00 0.00 75 1014.6
20260508032507 6 270 0.0 0.0 0.00 0.00 0.00 76 1014.6
20260508032006 6 270 0.0 0.0 0.00 0.00 0.00 77 1014.5
20260508031517 6 270 0.0 0.0 0.00 0.00 0.00 77 1014.4
20260508031008 6 270 0.0 0.0 0.00 0.00 0.00 79 1014.3
20260508030503 6 270 0.0 0.0 0.00 0.00 0.00 80 1014.3
20260508030025 6 270 0.0 0.0 0.00 0.00 0.00 80 1014.3
20260508025506 6 270 0.0 0.0 0.00 0.00 0.00 79 1014.4
20260508025007 6 270 0.0 0.0 0.00 0.00 0.00 78 1014.5
20260508024520 6 269 0.0 1.6 0.00 0.00 0.00 79 1014.5
20260508024004 6 270 0.0 3.2 0.00 0.00 0.00 79 1014.5
20260508023503 6 270 1.6 3.2 0.00 0.00 0.00 79 1014.4
20260508023008 6 269 0.0 3.2 0.00 0.00 0.00 78 1014.5
20260508022508 6 269 1.6 3.2 0.00 0.00 0.00 79 1014.4
20260508022004 6 270 0.0 3.2 0.00 0.00 0.00 78 1014.4
20260508021514 6 270 0.0 3.2 0.00 0.00 0.00 78 1014.5
20260508021007 6 270 0.0 3.2 0.00 0.00 0.00 77 1014.4
20260508020506 6 270 0.0 1.6 0.00 0.00 0.00 75 1014.3
20260508020027 6 269 1.6 1.6 0.00 0.00 0.00 74 1014.3
20260508015511 7 270 0.0 1.6 0.00 0.00 0.00 74 1014.4
20260508015007 7 270 0.0 3.2 0.00 0.00 0.00 74 1014.3
20260508014504 7 270 0.0 3.2 0.00 0.00 0.00 74 1014.4
20260508014004 7 269 0.0 0.0 0.00 0.00 0.00 74 1014.4
20260508013502 8 270 0.0 0.0 0.00 0.00 0.00 73 1014.4
20260508013007 8 270 0.0 0.0 0.00 0.00 0.00 72 1014.4
20260508012508 8 270 0.0 0.0 0.00 0.00 0.00 72 1014.4
20260508012004 8 270 0.0 0.0 0.00 0.00 0.00 70 1014.3
20260508011513 8 269 0.0 0.0 0.00 0.00 0.00 70 1014.3
20260508011004 9 269 0.0 0.0 0.00 0.00 0.00 68 1014.3
20260508010504 9 270 0.0 0.0 0.00 0.00 0.00 67 1014.3
20260508010018 10 270 0.0 0.0 0.00 0.00 0.00 67 1014.3
20260508005507 10 270 0.0 3.2 0.00 0.00 0.00 65 1014.2
20260508005006 10 270 0.0 3.2 0.00 0.00 0.00 63 1014.2
20260508004520 11 270 0.0 3.2 0.00 0.00 0.00 60 1014.2
20260508004010 11 270 0.0 3.2 0.00 0.00 0.00 54 1014.2
20260508003508 12 270 0.0 3.2 0.00 0.00 0.00 53 1014.2
20260508003006 12 270 0.0 3.2 0.00 0.00 0.00 51 1014.2
20260508002504 13 270 0.0 3.2 0.00 0.00 0.00 48 1014.2
20260508002004 13 270 0.0 3.2 0.00 0.00 0.00 46 1014.1
20260508001519 13 270 0.0 3.2 0.00 0.00 0.00 43 1014.1
20260508001004 13 264 1.6 3.2 0.00 0.00 0.00 43 1014.1
20260508000507 13 276 1.6 8.0 0.00 0.00 0.00 42 1014.2
20260508000016 13 264 1.6 11.3 0.00 0.00 0.00 41 1014.1
20260507235504 14 261 3.2 11.3 0.00 0.00 0.00 41 1014.1
20260507235006 14 261 6.4 11.3 0.00 0.00 0.00 40 1014.1
20260507234519 14 237 4.8 9.7 0.00 0.00 0.00 40 1014.1
20260507234051 14 272 6.4 9.7 0.00 0.00 0.00 42 1014.0
20260507233507 15 294 3.2 8.0 0.00 0.00 0.00 39 1014.0
20260507233025 15 295 3.2 11.3 0.00 0.00 0.00 40 1013.9
20260507232511 15 311 3.2 11.3 0.00 0.00 0.00 40 1013.9
20260507232011 15 288 1.6 12.9 0.00 0.00 0.00 41 1013.7
20260507231507 15 271 4.8 12.9 0.00 0.00 0.00 41 1013.8
20260507231002 15 282 4.8 9.7 0.00 0.00 0.00 41 1013.9
20260507230503 15 313 4.8 9.7 0.00 0.00 0.00 39 1013.8
20260507230012 15 248 3.2 9.7 0.00 0.00 0.00 40 1013.9
20260507225510 15 310 4.8 11.3 0.00 0.00 0.00 40 1013.9
20260507225007 15 234 4.8 12.9 0.00 0.00 0.00 43 1013.9
20260507224516 15 261 4.8 12.9 0.00 0.00 0.00 38 1013.9
20260507224010 15 281 6.4 12.9 0.00 0.00 0.00 40 1013.9
20260507223510 15 271 6.4 12.9 0.00 0.00 0.00 41 1013.9
20260507223024 15 270 3.2 12.9 0.00 0.00 0.00 42 1013.9
20260507222507 15 285 4.8 12.9 0.00 0.00 0.00 38 1014.0
20260507222006 15 352 1.6 14.5 0.00 0.00 0.00 40 1014.0
20260507221524 15 269 6.4 14.5 0.00 0.00 0.00 39 1014.0
20260507221011 15 317 4.8 12.9 0.00 0.00 0.00 39 1014.0